Pagosa Springs, CO

12:29 AM MST on February 08, 2016 (GMT -0700)
Pagosa Springs

Weather History for KPSO - November, 2013

Change the Weather History Date:

Wednesday, November 6, 2013

  Actual Average (KDRO) Record (KDRO)
Temperature  
Mean Temperature 28 °F 39 °F  
Max Temperature 43 °F 53 °F 70 °F (1980)
Min Temperature 13 °F 25 °F 12 °F (2008)
Degree Days  
Heating Degree Days 37 26  
Month to date heating degree days 151  
Since 1 July heating degree days 939  
Cooling Degree Days 0 0  
Month to date cooling degree days 0  
Year to date cooling degree days 243  
Moisture  
Dew Point 12 °F    
Average Humidity 56    
Maximum Humidity 83    
Minimum Humidity 24    
Precipitation  
Precipitation 0.00 in 0.05 in 0.86 in (1977)
Month to date precipitation 0.35  
Year to date precipitation 13.57  
Sea Level Pressure  
Sea Level Pressure 30.39 in    
Wind  
Wind Speed 1 mph (SW)    
Max Wind Speed 6 mph    
Max Gust Speed -    
Visibility 10 miles    
Events Thunderstorm    
T = Trace of Precipitation, MM = Missing Value Source: NWS Daily Summary

Daily Weather History Graph

Daily Weather History Graph

Search for Another Location

Airport or City:

Trip Planner

Search our weather history database for the weather conditions in past years. The results will help you decide how hot, cold, wet, or windy it might be!

Date:

Astronomy

Nov. 06, 2013 Rise Set
Actual Time 6:38 AM MST 5:05 PM MST
Civil Twilight 6:10 AM MST 5:32 PM MST
Nautical Twilight 5:39 AM MST 6:03 PM MST
Astronomical Twilight 5:09 AM MST 6:33 PM MST
Moon 9:54 AM MST (11/6) 8:14 PM MST (11/6)
Length of Visible Light 11h 21m
Length of Day
10h 26m
Waxing Crescent, 14% of the Moon is Illuminated
Nov 6
Waxing Crescent
Nov 9
First Quarter
Nov 17
Full
Nov 25
Last Quarter
Dec 2
New

Hourly Weather History & Observations

Time (MST) Temp. Windchill Dew Point Humidity Pressure Visibility Wind Dir Wind Speed Gust Speed Precip Events Conditions
12:15 AM 19.2 °F - 12.2 °F 74% 30.27 in 10.0 mi Calm Calm - N/A   Clear
12:35 AM 20.1 °F - 11.8 °F 70% 30.27 in 10.0 mi Calm Calm - N/A   Clear
12:55 AM 17.6 °F - 10.9 °F 75% 30.27 in 10.0 mi Calm Calm - N/A   Clear
1:15 AM 19.8 °F - 11.7 °F 71% 30.27 in 10.0 mi Calm Calm - N/A   Clear
1:35 AM 18.7 °F - 12.0 °F 75% 30.28 in 10.0 mi Calm Calm - N/A   Clear
1:55 AM 18.1 °F - 12.4 °F 78% 30.29 in 10.0 mi Calm Calm - N/A   Clear
2:15 AM 17.6 °F - 11.7 °F 78% 30.29 in 10.0 mi Calm Calm - N/A   Clear
2:35 AM 16.9 °F - 11.3 °F 79% 30.30 in 10.0 mi Calm Calm - N/A   Clear
2:55 AM 16.5 °F - 10.4 °F 77% 30.30 in 10.0 mi Calm Calm - N/A   Clear
3:15 AM 15.4 °F - 9.7 °F 78% 30.30 in 10.0 mi Calm Calm - N/A   Clear
3:35 AM 15.8 °F - 9.7 °F 77% 30.30 in 10.0 mi Calm Calm - N/A   Clear
3:55 AM 16.0 °F - 9.7 °F 76% 30.31 in 10.0 mi Calm Calm - N/A   Clear
4:15 AM 18.0 °F - 10.8 °F 73% 30.32 in 10.0 mi Calm Calm - N/A   Clear
4:35 AM 16.2 °F - 10.2 °F 77% 30.32 in 10.0 mi Calm Calm - N/A   Clear
4:55 AM 13.8 °F - 9.3 °F 82% 30.33 in 10.0 mi Calm Calm - N/A   Clear
5:15 AM 14.2 °F - 9.7 °F 82% 30.34 in 10.0 mi Calm Calm - N/A   Clear
5:35 AM 13.8 °F - 9.1 °F 82% 30.34 in 10.0 mi Calm Calm - N/A   Clear
5:55 AM 15.1 °F - 9.5 °F 79% 30.34 in 10.0 mi Calm Calm - N/A   Clear
6:15 AM 15.1 °F - 9.3 °F 78% 30.34 in 10.0 mi Calm Calm - N/A   Clear
6:35 AM 16.2 °F - 10.8 °F 79% 30.35 in 10.0 mi Calm Calm - N/A   Clear
6:55 AM 14.0 °F - 9.7 °F 83% 30.36 in 10.0 mi Calm Calm - N/A   Clear
7:15 AM 16.2 °F - 10.4 °F 78% 30.36 in 10.0 mi Calm Calm - N/A   Clear
7:35 AM 18.7 °F - 11.5 °F 74% 30.37 in 10.0 mi Calm Calm - N/A   Clear
7:55 AM 21.2 °F - 10.9 °F 65% 30.39 in 10.0 mi Calm Calm - N/A   Clear
8:15 AM 22.8 °F - 10.0 °F 58% 30.39 in 10.0 mi Calm Calm - N/A   Clear
8:35 AM 23.7 °F - 11.3 °F 59% 30.40 in 10.0 mi Calm Calm - N/A   Clear
8:55 AM 25.5 °F - 12.9 °F 59% 30.41 in 10.0 mi Calm Calm - N/A   Clear
9:15 AM 27.1 °F - 11.8 °F 53% 30.41 in 10.0 mi Calm Calm - N/A   Clear
9:35 AM 28.9 °F - 10.9 °F 47% 30.41 in 10.0 mi Calm Calm - N/A   Clear
9:55 AM 30.9 °F - 8.8 °F 40% 30.42 in 10.0 mi Calm Calm - N/A   Clear
10:15 AM 32.0 °F - 9.1 °F 38% 30.41 in 10.0 mi Calm Calm - N/A   Clear
10:35 AM 33.1 °F - 9.0 °F 37% 30.42 in 10.0 mi Calm Calm - N/A   Clear
10:55 AM 34.0 °F - 9.1 °F 36% 30.41 in 10.0 mi Calm Calm - N/A   Clear
11:15 AM 35.2 °F 31.2 °F 9.3 °F 34% 30.41 in 10.0 mi South 4.6 mph - N/A   Clear
11:35 AM 35.8 °F - 8.4 °F 32% 30.41 in 10.0 mi Calm Calm - N/A   Clear
11:55 AM 37.2 °F - 6.6 °F 28% 30.40 in 10.0 mi Calm Calm - N/A   Clear
12:15 PM 37.6 °F - 7.0 °F 28% 30.39 in 10.0 mi Calm Calm - N/A   Clear
12:35 PM 38.8 °F 36.5 °F 7.2 °F 27% 30.38 in 10.0 mi SW 3.5 mph - N/A   Clear
12:55 PM 39.7 °F 35.6 °F 6.1 °F 25% 30.38 in 10.0 mi SSW 5.8 mph - N/A   Clear
1:15 PM 41.0 °F 39.0 °F 6.3 °F 24% 30.38 in 10.0 mi SW 3.5 mph - N/A   Clear
1:35 PM 41.9 °F 38.2 °F 9.3 °F 26% 30.38 in 10.0 mi WSW 5.8 mph - N/A   Clear
1:55 PM 42.4 °F 38.8 °F 9.3 °F 26% 30.38 in 10.0 mi South 5.8 mph - N/A   Clear
2:15 PM 42.4 °F - 10.0 °F 27% 30.38 in 10.0 mi Calm Calm - N/A   Clear
2:35 PM 43.0 °F 41.3 °F 9.9 °F 26% 30.38 in 10.0 mi South 3.5 mph - N/A   Clear
2:55 PM 43.2 °F 39.7 °F 10.8 °F 27% 30.39 in 10.0 mi SSW 5.8 mph - N/A   Clear
3:15 PM 43.0 °F 40.3 °F 10.9 °F 27% 30.39 in 10.0 mi WSW 4.6 mph - N/A   Clear
3:35 PM 43.5 °F 40.9 °F 10.9 °F 27% 30.39 in 10.0 mi SW 4.6 mph - N/A   Clear
3:55 PM 43.3 °F 40.7 °F 11.1 °F 27% 30.39 in 10.0 mi WSW 4.6 mph - N/A   Clear
4:15 PM 43.0 °F 40.3 °F 11.5 °F 28% 30.40 in 10.0 mi WSW 4.6 mph - N/A   Clear
4:35 PM 42.4 °F 38.8 °F 11.7 °F 29% 30.40 in 10.0 mi WSW 5.8 mph - N/A   Clear
4:55 PM 41.4 °F 38.4 °F 12.7 °F 31% 30.40 in 10.0 mi WSW 4.6 mph - N/A   Clear
5:15 PM 37.6 °F - 13.8 °F 38% 30.41 in 10.0 mi Calm Calm - N/A Thunderstorm Clear
5:35 PM 35.2 °F - 14.9 °F 43% 30.41 in 10.0 mi Calm Calm - N/A   Clear
5:55 PM 32.2 °F - 15.1 °F 49% 30.43 in 10.0 mi Calm Calm - N/A   Clear
6:15 PM 30.2 °F - 15.6 °F 55% 30.43 in 10.0 mi Calm Calm - N/A   Clear
6:35 PM 31.6 °F - 15.3 °F 51% 30.44 in 10.0 mi Calm Calm - N/A   Clear
6:55 PM 28.4 °F - 15.8 °F 59% 30.44 in 10.0 mi Calm Calm - N/A   Clear
7:15 PM 30.0 °F 25.2 °F 14.9 °F 53% 30.44 in 10.0 mi NE 4.6 mph - N/A   Clear
7:35 PM 30.2 °F - 14.2 °F 51% 30.44 in 10.0 mi Calm Calm - N/A   Clear
7:55 PM 28.0 °F - 15.4 °F 59% 30.45 in 10.0 mi Calm Calm - N/A   Clear
8:15 PM 27.5 °F - 16.7 °F 64% 30.46 in 10.0 mi Calm Calm - N/A   Clear
8:35 PM 25.7 °F - 16.3 °F 68% 30.46 in 10.0 mi Calm Calm - N/A   Clear
8:55 PM 26.1 °F - 15.1 °F 63% 30.46 in 10.0 mi Calm Calm - N/A   Clear
9:15 PM 24.8 °F - 15.8 °F 69% 30.47 in 10.0 mi Calm Calm - N/A   Clear
9:35 PM 24.8 °F - 15.8 °F 69% 30.47 in 10.0 mi Calm Calm - N/A   Clear
9:55 PM 26.8 °F - 15.6 °F 63% 30.48 in 10.0 mi Calm Calm - N/A   Clear
10:15 PM 25.3 °F - 18.0 °F 74% 30.48 in 10.0 mi Calm Calm - N/A   Clear
10:35 PM 23.0 °F - 15.8 °F 74% 30.47 in 10.0 mi Calm Calm - N/A   Clear
10:55 PM 26.1 °F - 15.1 °F 63% 30.48 in 10.0 mi Calm Calm - N/A   Clear
11:15 PM 24.1 °F - 15.8 °F 71% 30.48 in 10.0 mi Calm Calm - N/A   Clear
11:35 PM 26.1 °F - 16.3 °F 67% 30.48 in 10.0 mi Calm Calm - N/A   Clear
11:55 PM 23.2 °F - 15.1 °F 71% 30.49 in 10.0 mi Calm Calm - N/A   Clear